JBU1407 KJFK-LFPG

Flight info

Callsign JBU1407
Flight time 6h 52m
Altitude 29000
Route HAPIE DCT YAHOO DCT WHALE N167B PORTI/M079F320 DCT 47N050W 49N040W 51N030W 53N020W DCT MALOT DCT GISTI/N0452F330 DCT LESLU DCT ANNET UM25 INGOR/N0437F280 UM25 LUKIP
Aircraft A21N/M-SDE3FGHIRWY/LB1

Departure

Time 2026-05-04 19:16
Airport John F. Kennedy International Airport (KJFK)

Arrival

Time 2026-05-05 02:09
Airport Charles de Gaulle International Airport (LFPG)
Time Latitude Longitude Altitude Speed Heading
2026-05-04 18:57 40.64526 -73.77237 16 ft 0 kts
2026-05-04 19:05 40.64511 -73.77237 16 ft 2 kts
2026-05-04 19:05 40.64496 -73.77238 16 ft 2 kts 15°
2026-05-04 19:06 40.64483 -73.77247 16 ft 2 kts 44°
2026-05-04 19:06 40.64475 -73.77263 16 ft 2 kts 71°
2026-05-04 19:06 40.64473 -73.77276 16 ft 0 kts 88°
2026-05-04 19:06 40.64473 -73.77285 16 ft 0 kts 91°
2026-05-04 19:08 40.64473 -73.77280 16 ft 1 kts 91°
2026-05-04 19:08 40.64473 -73.77257 16 ft 3 kts 91°
2026-05-04 19:09 40.64467 -73.77224 16 ft 4 kts 112°
2026-05-04 19:09 40.64457 -73.77194 16 ft 3 kts 116°
2026-05-04 19:09 40.64449 -73.77159 16 ft 5 kts 92°
2026-05-04 19:09 40.64467 -73.77112 16 ft 6 kts 39°
2026-05-04 19:10 40.64513 -73.77091 16 ft 7 kts
2026-05-04 19:10 40.64550 -73.77089 16 ft 8 kts
2026-05-04 19:10 40.64633 -73.77090 16 ft 9 kts 352°
2026-05-04 19:10 40.64693 -73.77129 16 ft 9 kts 315°
2026-05-04 19:11 40.64743 -73.77181 16 ft 9 kts 352°
2026-05-04 19:11 40.64793 -73.77129 16 ft 10 kts 55°
2026-05-04 19:11 40.64836 -73.77052 16 ft 10 kts 52°
2026-05-04 19:11 40.64884 -73.76971 16 ft 11 kts 52°
2026-05-04 19:12 40.64919 -73.76878 16 ft 11 kts 88°
2026-05-04 19:12 40.64896 -73.76693 16 ft 11 kts 47°
2026-05-04 19:12 40.64961 -73.76634 16 ft 11 kts 31°
2026-05-04 19:13 40.65031 -73.76579 16 ft 12 kts 30°
2026-05-04 19:13 40.65099 -73.76514 16 ft 12 kts 65°
2026-05-04 19:13 40.65073 -73.76415 16 ft 11 kts 120°
2026-05-04 19:13 40.65038 -73.76355 16 ft 5 kts 163°
2026-05-04 19:14 40.65022 -73.76359 16 ft 0 kts 206°
2026-05-04 19:15 40.64916 -73.76438 16 ft 49 kts 212°
2026-05-04 19:15 40.64629 -73.76662 16 ft 92 kts 212°
2026-05-04 19:16 40.63914 -73.77220 16 ft 146 kts 211°
2026-05-04 19:16 40.62957 -73.77971 288 ft 164 kts 211°
2026-05-04 19:16 40.61972 -73.78722 843 ft 165 kts 211°
2026-05-04 19:16 40.60969 -73.79460 1398 ft 168 kts 211°
2026-05-04 19:17 40.59939 -73.80205 1953 ft 170 kts 212°
2026-05-04 19:17 40.58846 -73.80829 2320 ft 182 kts 192°
2026-05-04 19:17 40.57561 -73.80396 2593 ft 208 kts 148°
2026-05-04 19:17 40.56537 -73.79109 3255 ft 202 kts 129°
2026-05-04 19:18 40.55977 -73.77426 3681 ft 205 kts 108°
2026-05-04 19:18 40.55644 -73.75597 4008 ft 209 kts 105°
2026-05-04 19:18 40.55328 -73.73728 4366 ft 211 kts 105°
2026-05-04 19:18 40.54983 -73.71840 4733 ft 212 kts 107°
2026-05-04 19:19 40.54608 -73.69942 5026 ft 219 kts 107°
2026-05-04 19:19 40.54200 -73.67990 5245 ft 229 kts 108°
2026-05-04 19:19 40.53754 -73.65912 5421 ft 244 kts 108°
2026-05-04 19:19 40.53277 -73.63728 5668 ft 256 kts 108°
2026-05-04 19:20 40.52767 -73.61410 5927 ft 270 kts 108°
2026-05-04 19:20 40.52234 -73.58992 6183 ft 283 kts 108°
2026-05-04 19:20 40.51674 -73.56459 6463 ft 296 kts 108°
2026-05-04 19:20 40.51089 -73.53814 6910 ft 302 kts 107°
2026-05-04 19:21 40.50502 -73.51163 7471 ft 304 kts 107°
2026-05-04 19:21 40.49906 -73.48489 8007 ft 306 kts 107°
2026-05-04 19:21 40.49312 -73.45830 8513 ft 309 kts 107°
2026-05-04 19:21 40.48705 -73.43111 9014 ft 313 kts 107°
2026-05-04 19:22 40.48090 -73.40355 9477 ft 315 kts 106°
2026-05-04 19:22 40.47478 -73.37604 9985 ft 318 kts 106°
2026-05-04 19:22 40.46857 -73.34814 10436 ft 321 kts 107°
2026-05-04 19:22 40.46222 -73.31975 10911 ft 324 kts 107°
2026-05-04 19:23 40.45590 -73.29157 11352 ft 326 kts 107°
2026-05-04 19:23 40.44950 -73.26296 11789 ft 328 kts 107°
2026-05-04 19:23 40.44308 -73.23429 12206 ft 331 kts 107°
2026-05-04 19:23 40.43656 -73.20524 12613 ft 333 kts 107°
2026-05-04 19:24 40.42999 -73.17596 13041 ft 336 kts 107°
2026-05-04 19:24 40.42332 -73.14635 13463 ft 338 kts 106°
2026-05-04 19:24 40.41671 -73.11691 13746 ft 344 kts 106°
2026-05-04 19:24 40.40984 -73.08645 13955 ft 354 kts 106°
2026-05-04 19:25 40.40269 -73.05476 14157 ft 364 kts 106°
2026-05-04 19:25 40.39542 -73.02258 14337 ft 373 kts 106°
2026-05-04 19:25 40.39027 -72.98911 14507 ft 382 kts 92°
2026-05-04 19:25 40.39219 -72.95399 14695 ft 387 kts 75°
2026-05-04 19:26 40.39936 -72.92004 14868 ft 394 kts 70°
2026-05-04 19:26 40.40760 -72.88525 15034 ft 403 kts 70°
2026-05-04 19:26 40.41600 -72.84988 15200 ft 411 kts 70°
2026-05-04 19:26 40.42433 -72.81419 15400 ft 418 kts 70°
2026-05-04 19:27 40.43278 -72.77747 15743 ft 421 kts 70°
2026-05-04 19:27 40.44114 -72.74073 16112 ft 422 kts 71°
2026-05-04 19:27 40.44947 -72.70386 16458 ft 424 kts 71°
2026-05-04 19:27 40.45786 -72.66658 16794 ft 426 kts 71°
2026-05-04 19:28 40.46619 -72.62938 17132 ft 428 kts 71°
2026-05-04 19:28 40.47453 -72.59206 17436 ft 430 kts 71°
2026-05-04 19:28 40.48296 -72.55429 17742 ft 432 kts 71°
2026-05-04 19:28 40.49141 -72.51640 18071 ft 434 kts 71°
2026-05-04 19:29 40.49984 -72.47845 18391 ft 436 kts 71°
2026-05-04 19:29 40.50828 -72.44042 18706 ft 437 kts 71°
2026-05-04 19:29 40.51678 -72.40202 18994 ft 439 kts 71°
2026-05-04 19:29 40.52536 -72.36318 19311 ft 441 kts 71°
2026-05-04 19:30 40.53386 -72.32471 19595 ft 442 kts 71°
2026-05-04 19:30 40.54236 -72.28616 19889 ft 443 kts 71°
2026-05-04 19:30 40.55093 -72.24715 20183 ft 444 kts 71°
2026-05-04 19:30 40.55943 -72.20834 20434 ft 446 kts 71°
2026-05-04 19:31 40.56810 -72.16880 20702 ft 447 kts 71°
2026-05-04 19:31 40.57661 -72.12988 20958 ft 449 kts 71°
2026-05-04 19:31 40.58528 -72.09018 21204 ft 451 kts 71°
2026-05-04 19:31 40.59388 -72.05076 21468 ft 452 kts 71°
2026-05-04 19:32 40.60245 -72.01135 21730 ft 452 kts 71°
2026-05-04 19:32 40.61108 -71.97164 21977 ft 453 kts 71°
2026-05-04 19:32 40.61979 -71.93152 22204 ft 455 kts 71°
2026-05-04 19:32 40.62843 -71.89153 22432 ft 456 kts 71°
2026-05-04 19:33 40.63708 -71.85147 22687 ft 456 kts 70°
2026-05-04 19:33 40.64575 -71.81132 22903 ft 457 kts 71°
2026-05-04 19:33 40.65445 -71.77088 23099 ft 459 kts 70°
2026-05-04 19:33 40.66305 -71.73077 23320 ft 460 kts 70°
2026-05-04 19:34 40.67171 -71.69044 23521 ft 461 kts 70°
2026-05-04 19:34 40.68043 -71.64967 23739 ft 462 kts 70°
2026-05-04 19:34 40.68916 -71.60882 23945 ft 463 kts 71°
2026-05-04 19:34 40.69777 -71.56843 24140 ft 464 kts 70°
2026-05-04 19:35 40.70651 -71.52731 24300 ft 466 kts 70°
2026-05-04 19:35 40.71517 -71.48655 24453 ft 468 kts 70°
2026-05-04 19:35 40.72391 -71.44527 24631 ft 469 kts 70°
2026-05-04 19:35 40.73270 -71.40377 24791 ft 471 kts 70°
2026-05-04 19:36 40.74150 -71.36210 24955 ft 472 kts 70°
2026-05-04 19:36 40.75021 -71.32081 25109 ft 473 kts 71°
2026-05-04 19:36 40.75905 -71.27876 25258 ft 475 kts 71°
2026-05-04 19:36 40.76776 -71.23722 25441 ft 475 kts 71°
2026-05-04 19:37 40.77657 -71.19510 25664 ft 474 kts 71°
2026-05-04 19:37 40.78529 -71.15338 25893 ft 474 kts 71°
2026-05-04 19:37 40.79405 -71.11137 26080 ft 474 kts 71°
2026-05-04 19:37 40.80266 -71.07004 26277 ft 474 kts 71°
2026-05-04 19:38 40.81135 -71.02816 26487 ft 473 kts 71°
2026-05-04 19:38 40.82001 -70.98642 26702 ft 472 kts 71°
2026-05-04 19:38 40.82870 -70.94441 26918 ft 472 kts 71°
2026-05-04 19:38 40.83724 -70.90304 27100 ft 472 kts 71°
2026-05-04 19:39 40.84585 -70.86131 27264 ft 472 kts 71°
2026-05-04 19:39 40.85451 -70.81914 27410 ft 473 kts 71°
2026-05-04 19:39 40.86304 -70.77763 27547 ft 474 kts 71°
2026-05-04 19:39 40.87169 -70.73544 27693 ft 475 kts 71°
2026-05-04 19:40 40.88024 -70.69366 27843 ft 475 kts 71°
2026-05-04 19:40 40.88877 -70.65185 27965 ft 476 kts 71°
2026-05-04 19:40 40.89745 -70.60918 28081 ft 478 kts 71°
2026-05-04 19:40 40.90605 -70.56687 28217 ft 479 kts 71°
2026-05-04 19:41 40.91463 -70.52452 28392 ft 479 kts 71°
2026-05-04 19:41 40.92320 -70.48213 28519 ft 480 kts 71°
2026-05-04 19:41 40.93171 -70.43997 28649 ft 481 kts 71°
2026-05-04 19:41 40.94030 -70.39739 28790 ft 481 kts 71°
2026-05-04 19:42 40.94893 -70.35445 28934 ft 482 kts 71°
2026-05-04 19:42 40.96605 -70.26904 28998 ft 483 kts 72°
2026-05-04 19:43 40.98316 -70.18330 28993 ft 483 kts 72°
2026-05-04 19:43 41.00027 -70.09725 28993 ft 483 kts 72°
2026-05-04 19:44 41.01726 -70.01141 28997 ft 484 kts 72°
2026-05-04 19:44 41.03418 -69.92546 28993 ft 484 kts 73°
2026-05-04 19:45 41.05111 -69.83890 28996 ft 484 kts 72°
2026-05-04 19:45 41.07071 -69.75415 28983 ft 481 kts 65°
2026-05-04 19:46 41.09920 -69.67516 28996 ft 478 kts 57°
2026-05-04 19:46 41.13205 -69.59875 28994 ft 478 kts 56°
2026-05-04 19:47 41.16515 -69.52209 28988 ft 479 kts 56°
2026-05-04 19:47 41.19798 -69.44544 28980 ft 479 kts 57°
2026-05-04 19:48 41.23068 -69.36866 28977 ft 479 kts 57°
2026-05-04 19:48 41.26351 -69.29130 28983 ft 479 kts 57°
2026-05-04 19:49 41.29594 -69.21466 28980 ft 479 kts 57°
2026-05-04 19:49 41.32866 -69.13716 28975 ft 479 kts 57°
2026-05-04 19:50 41.36113 -69.06005 28979 ft 479 kts 57°
2026-05-04 19:50 41.39363 -68.98269 28978 ft 480 kts 57°
2026-05-04 19:51 41.42606 -68.90530 28966 ft 480 kts 57°
2026-05-04 19:51 41.45857 -68.82748 28976 ft 480 kts 57°
2026-05-04 19:52 41.49089 -68.74991 28982 ft 481 kts 57°
2026-05-04 19:52 41.52320 -68.67223 28972 ft 482 kts 57°
2026-05-04 19:53 41.55573 -68.59374 28985 ft 483 kts 57°
2026-05-04 19:53 41.58793 -68.51587 28989 ft 483 kts 57°
2026-05-04 19:54 41.62030 -68.43735 28981 ft 483 kts 58°
2026-05-04 19:54 41.65254 -68.35889 28973 ft 483 kts 57°
2026-05-04 19:55 41.68473 -68.28045 28974 ft 484 kts 58°
2026-05-04 19:55 41.71696 -68.20165 28970 ft 484 kts 58°
2026-05-04 19:56 41.74915 -68.12266 28972 ft 485 kts 58°
2026-05-04 19:56 41.78135 -68.04347 28978 ft 485 kts 58°
2026-05-04 19:57 41.81352 -67.96419 28961 ft 485 kts 58°
2026-05-04 19:57 41.84565 -67.88489 28965 ft 485 kts 58°
2026-05-04 19:58 41.87775 -67.80537 28969 ft 485 kts 58°
2026-05-04 19:58 41.90982 -67.72568 28969 ft 485 kts 58°
2026-05-04 19:59 41.94181 -67.64601 28964 ft 485 kts 58°
2026-05-04 19:59 41.97377 -67.56614 28970 ft 485 kts 58°
2026-05-04 20:00 42.00547 -67.48676 28959 ft 486 kts 58°
2026-05-04 20:00 42.03736 -67.40664 28967 ft 486 kts 58°
2026-05-04 20:01 42.06917 -67.32651 28960 ft 487 kts 59°
2026-05-04 20:01 42.10096 -67.24623 28967 ft 487 kts 59°
2026-05-04 20:02 42.13265 -67.16590 28964 ft 488 kts 59°
2026-05-04 20:02 42.16433 -67.08539 28970 ft 488 kts 59°
2026-05-04 20:03 42.19600 -67.00463 28949 ft 488 kts 59°
2026-05-04 20:03 42.22708 -66.92320 28956 ft 489 kts 60°
2026-05-04 20:04 42.25758 -66.84179 28946 ft 490 kts 60°
2026-05-04 20:04 42.28824 -66.75984 28959 ft 493 kts 60°
2026-05-04 20:05 42.31926 -66.67679 29055 ft 499 kts 60°
2026-05-04 20:05 42.35043 -66.59311 29181 ft 503 kts 60°
2026-05-04 20:05 42.36623 -66.55064 29314 ft 504 kts 60°
2026-05-04 20:06 42.38181 -66.50865 29475 ft 504 kts 60°
2026-05-04 20:06 42.39748 -66.46640 29621 ft 504 kts 60°
2026-05-04 20:06 42.41306 -66.42429 29768 ft 504 kts 60°
2026-05-04 20:06 42.42871 -66.38194 29919 ft 504 kts 60°
2026-05-04 20:07 42.44426 -66.33979 30050 ft 505 kts 61°
2026-05-04 20:07 42.45999 -66.29714 30156 ft 506 kts 61°
2026-05-04 20:07 42.47570 -66.25445 30268 ft 506 kts 62°
2026-05-04 20:08 42.50693 -66.16936 30482 ft 508 kts 62°
2026-05-04 20:08 42.52263 -66.12653 30630 ft 507 kts 62°
2026-05-04 20:08 42.53820 -66.08400 30776 ft 507 kts 62°
2026-05-04 20:08 42.55385 -66.04114 30891 ft 508 kts 62°
2026-05-04 20:09 42.56949 -65.99823 30988 ft 508 kts 62°
2026-05-04 20:09 42.58519 -65.95509 31099 ft 509 kts 62°
2026-05-04 20:09 42.60064 -65.91254 31214 ft 508 kts 62°
2026-05-04 20:10 42.63180 -65.82664 31397 ft 509 kts 62°
2026-05-04 20:10 42.66296 -65.74046 31563 ft 510 kts 62°
2026-05-04 20:11 42.69407 -65.65417 31698 ft 512 kts 62°
2026-05-04 20:11 42.72520 -65.56752 31860 ft 513 kts 62°
2026-05-04 20:12 42.75640 -65.48041 31904 ft 514 kts 62°
2026-05-04 20:12 42.78765 -65.39288 31903 ft 515 kts 62°
2026-05-04 20:13 42.81873 -65.30566 31905 ft 515 kts 63°
2026-05-04 20:13 42.84988 -65.21780 31907 ft 516 kts 63°
2026-05-04 20:14 42.88099 -65.12989 31909 ft 517 kts 63°
2026-05-04 20:14 42.91202 -65.04189 31908 ft 518 kts 63°
2026-05-04 20:15 42.94313 -64.95338 31908 ft 518 kts 63°
2026-05-04 20:15 42.97417 -64.86476 31910 ft 519 kts 63°
2026-05-04 20:16 43.00500 -64.77651 31909 ft 519 kts 63°
2026-05-04 20:16 43.03591 -64.68767 31907 ft 519 kts 63°
2026-05-04 20:17 43.06680 -64.59867 31912 ft 519 kts 63°
2026-05-04 20:17 43.09769 -64.50937 31908 ft 520 kts 63°
2026-05-04 20:18 43.12849 -64.41999 31915 ft 520 kts 63°
2026-05-04 20:18 43.15906 -64.33109 31904 ft 521 kts 64°
2026-05-04 20:19 43.18988 -64.24110 31906 ft 521 kts 64°
2026-05-04 20:19 43.22056 -64.15123 31915 ft 523 kts 64°
2026-05-04 20:20 43.25113 -64.06139 31902 ft 523 kts 64°
2026-05-04 20:20 43.28188 -63.97068 31911 ft 524 kts 64°
2026-05-04 20:21 43.31253 -63.88001 31898 ft 524 kts 64°
2026-05-04 20:21 43.35819 -63.74430 31889 ft 525 kts 64°
2026-05-04 20:22 43.38886 -63.65280 31885 ft 526 kts 64°
2026-05-04 20:22 43.41931 -63.56163 31878 ft 527 kts 64°
2026-05-04 20:23 43.44988 -63.47006 31883 ft 527 kts 64°
2026-05-04 20:23 43.48037 -63.37828 31881 ft 528 kts 64°
2026-05-04 20:24 43.51067 -63.28677 31880 ft 528 kts 65°
2026-05-04 20:24 43.54101 -63.19464 31872 ft 529 kts 65°
2026-05-04 20:25 43.57124 -63.10255 31873 ft 530 kts 64°
2026-05-04 20:25 43.60164 -63.00970 31871 ft 530 kts 65°
2026-05-04 20:26 43.63172 -62.91740 31875 ft 530 kts 65°
2026-05-04 20:26 43.66168 -62.82520 31866 ft 530 kts 65°
2026-05-04 20:27 43.69183 -62.73208 31875 ft 531 kts 65°
2026-05-04 20:27 43.72183 -62.63911 31885 ft 532 kts 65°
2026-05-04 20:28 43.75171 -62.54619 31878 ft 532 kts 65°
2026-05-04 20:28 43.78160 -62.45296 31877 ft 532 kts 65°
2026-05-04 20:29 43.81145 -62.35944 31872 ft 533 kts 65°
2026-05-04 20:29 43.84126 -62.26575 31880 ft 533 kts 65°
2026-05-04 20:30 43.87094 -62.17223 31869 ft 532 kts 65°
2026-05-04 20:30 43.90061 -62.07870 31875 ft 532 kts 65°
2026-05-04 20:31 43.93018 -61.98478 31867 ft 532 kts 65°
2026-05-04 20:31 43.95971 -61.89061 31865 ft 532 kts 66°
2026-05-04 20:32 43.98891 -61.79637 31869 ft 532 kts 66°
2026-05-04 20:32 44.01812 -61.70213 31867 ft 532 kts 66°
2026-05-04 20:33 44.04723 -61.60808 31866 ft 532 kts 66°
2026-05-04 20:33 44.07629 -61.51408 31871 ft 533 kts 66°
2026-05-04 20:34 44.10539 -61.41964 31858 ft 532 kts 66°
2026-05-04 20:34 44.13430 -61.32550 31862 ft 532 kts 66°
2026-05-04 20:35 44.16318 -61.23106 31864 ft 532 kts 66°
2026-05-04 20:35 44.19202 -61.13642 31865 ft 532 kts 66°
2026-05-04 20:36 44.22070 -61.04186 31866 ft 532 kts 66°
2026-05-04 20:36 44.24944 -60.94689 31861 ft 531 kts 66°
2026-05-04 20:37 44.27790 -60.85250 31858 ft 531 kts 66°
2026-05-04 20:37 44.30637 -60.75769 31867 ft 533 kts 66°
2026-05-04 20:38 44.33494 -60.66225 31861 ft 533 kts 66°
2026-05-04 20:38 44.36342 -60.56666 31858 ft 533 kts 66°
2026-05-04 20:39 44.39161 -60.47169 31854 ft 533 kts 66°
2026-05-04 20:39 44.42002 -60.37564 31850 ft 533 kts 66°
2026-05-04 20:40 44.44815 -60.28019 31842 ft 532 kts 67°
2026-05-04 20:40 44.47610 -60.18495 31851 ft 533 kts 67°
2026-05-04 20:41 44.50411 -60.08908 31848 ft 533 kts 67°
2026-05-04 20:41 44.53202 -59.99330 31864 ft 534 kts 68°
2026-05-04 20:42 44.55992 -59.89694 31853 ft 533 kts 67°
2026-05-04 20:42 44.58759 -59.80115 31859 ft 534 kts 67°
2026-05-04 20:43 44.61529 -59.70491 31850 ft 533 kts 67°
2026-05-04 20:43 44.64303 -59.60826 31842 ft 533 kts 67°
2026-05-04 20:44 44.67048 -59.51218 31837 ft 532 kts 67°
2026-05-04 20:44 44.69798 -59.41559 31835 ft 531 kts 67°
2026-05-04 20:45 44.72524 -59.31943 31833 ft 532 kts 68°
2026-05-04 20:45 44.75252 -59.22275 31831 ft 531 kts 68°
2026-05-04 20:46 44.77953 -59.12678 31818 ft 530 kts 68°
2026-05-04 20:46 44.80663 -59.03000 31828 ft 531 kts 68°
2026-05-04 20:47 44.83349 -58.93378 31812 ft 530 kts 68°
2026-05-04 20:47 44.86021 -58.83762 31811 ft 530 kts 68°
2026-05-04 20:48 44.88708 -58.74062 31816 ft 530 kts 68°
2026-05-04 20:48 44.91354 -58.64466 31825 ft 529 kts 68°
2026-05-04 20:49 44.93996 -58.54843 31807 ft 527 kts 68°
2026-05-04 20:49 44.96635 -58.45192 31807 ft 528 kts 68°
2026-05-04 20:50 44.99256 -58.35575 31803 ft 527 kts 68°
2026-05-04 20:50 45.01877 -58.25915 31798 ft 528 kts 69°
2026-05-04 20:51 45.04488 -58.16254 31792 ft 529 kts 68°
2026-05-04 20:51 45.07103 -58.06543 31794 ft 529 kts 69°
2026-05-04 20:52 45.09699 -57.96856 31796 ft 529 kts 69°
2026-05-04 20:52 45.12298 -57.87122 31786 ft 529 kts 69°
2026-05-04 20:53 45.14879 -57.77413 31785 ft 530 kts 69°
2026-05-04 20:53 45.17447 -57.67715 31783 ft 529 kts 69°
2026-05-04 20:54 45.20030 -57.57923 31783 ft 530 kts 69°
2026-05-04 20:54 45.22578 -57.48225 31781 ft 529 kts 69°
2026-05-04 20:55 45.25138 -57.38430 31781 ft 528 kts 69°
2026-05-04 20:55 45.27670 -57.28716 31769 ft 529 kts 70°
2026-05-04 20:56 45.30216 -57.18902 31778 ft 530 kts 70°
2026-05-04 20:56 45.32741 -57.09128 31770 ft 529 kts 70°
2026-05-04 20:57 45.35254 -56.99355 31788 ft 529 kts 70°
2026-05-04 20:57 45.37753 -56.89590 31784 ft 529 kts 70°
2026-05-04 20:58 45.40265 -56.79737 31781 ft 530 kts 70°
2026-05-04 20:58 45.42755 -56.69934 31769 ft 529 kts 70°
2026-05-04 20:59 45.45235 -56.60130 31788 ft 530 kts 70°
2026-05-04 20:59 45.47714 -56.50285 31772 ft 528 kts 70°
2026-05-04 21:00 45.50181 -56.40458 31781 ft 530 kts 70°
2026-05-04 21:00 45.52625 -56.30664 31775 ft 528 kts 71°
2026-05-04 21:01 45.55087 -56.20757 31779 ft 529 kts 71°
2026-05-04 21:01 45.57511 -56.10961 31777 ft 529 kts 71°
2026-05-04 21:02 45.59952 -56.01054 31777 ft 528 kts 71°
2026-05-04 21:02 45.62365 -55.91223 31765 ft 527 kts 71°
2026-05-04 21:03 45.64769 -55.81380 31779 ft 529 kts 71°
2026-05-04 21:03 45.67184 -55.71453 31784 ft 528 kts 71°
2026-05-04 21:04 45.69578 -55.61562 31788 ft 529 kts 71°
2026-05-04 21:04 45.71955 -55.51699 31782 ft 527 kts 71°
2026-05-04 21:05 45.74342 -55.41761 31789 ft 528 kts 71°
2026-05-04 21:05 45.76697 -55.31901 31781 ft 527 kts 72°
2026-05-04 21:06 45.79063 -55.21962 31781 ft 526 kts 72°
2026-05-04 21:06 45.81398 -55.12094 31784 ft 527 kts 72°
2026-05-04 21:07 45.83741 -55.02148 31779 ft 525 kts 72°
2026-05-04 21:07 45.86060 -54.92266 31773 ft 524 kts 72°
2026-05-04 21:08 45.88376 -54.82359 31772 ft 524 kts 72°
2026-05-04 21:08 45.90682 -54.72444 31777 ft 524 kts 72°
2026-05-04 21:09 45.92974 -54.62545 31771 ft 524 kts 72°
2026-05-04 21:09 45.95250 -54.52668 31766 ft 523 kts 72°
2026-05-04 21:10 45.97514 -54.42796 31764 ft 523 kts 72°
2026-05-04 21:10 45.99778 -54.32880 31763 ft 523 kts 73°
2026-05-04 21:11 46.02025 -54.23002 31763 ft 522 kts 73°
2026-05-04 21:11 46.04270 -54.13083 31759 ft 522 kts 73°
2026-05-04 21:12 46.06493 -54.03194 31751 ft 522 kts 73°
2026-05-04 21:12 46.08703 -53.93325 31755 ft 522 kts 73°
2026-05-04 21:13 46.10930 -53.83343 31755 ft 522 kts 73°
2026-05-04 21:13 46.13133 -53.73419 31754 ft 522 kts 73°
2026-05-04 21:14 46.15321 -53.63524 31757 ft 522 kts 73°
2026-05-04 21:14 46.17515 -53.53545 31763 ft 522 kts 73°
2026-05-04 21:15 46.19696 -53.43589 31760 ft 522 kts 73°
2026-05-04 21:15 46.21864 -53.33643 31759 ft 522 kts 74°
2026-05-04 21:16 46.24029 -53.23663 31759 ft 522 kts 74°
2026-05-04 21:16 46.26176 -53.13712 31756 ft 522 kts 74°
2026-05-04 21:17 46.28319 -53.03729 31764 ft 522 kts 74°
2026-05-04 21:17 46.30459 -52.93706 31764 ft 522 kts 74°
2026-05-04 21:18 46.32580 -52.83731 31762 ft 521 kts 74°
2026-05-04 21:18 46.34687 -52.73777 31760 ft 522 kts 75°
2026-05-04 21:19 46.36795 -52.63770 31757 ft 521 kts 74°
2026-05-04 21:19 46.38901 -52.53719 31765 ft 522 kts 75°
2026-05-04 21:20 46.40994 -52.43700 31762 ft 521 kts 74°
2026-05-04 21:20 46.43074 -52.33696 31763 ft 521 kts 75°
2026-05-04 21:21 46.45152 -52.23641 31763 ft 521 kts 75°
2026-05-04 21:21 46.47214 -52.13598 31766 ft 521 kts 75°
2026-05-04 21:22 46.49270 -52.03534 31767 ft 521 kts 75°
2026-05-04 21:22 46.51614 -51.93620 31766 ft 522 kts 71°
2026-05-04 21:23 46.54186 -51.83777 31768 ft 522 kts 71°
2026-05-04 21:23 46.56748 -51.73949 31770 ft 522 kts 71°
2026-05-04 21:24 46.59304 -51.64057 31769 ft 522 kts 71°
2026-05-04 21:24 46.61828 -51.54219 31772 ft 522 kts 71°
2026-05-04 21:25 46.64340 -51.44382 31771 ft 521 kts 71°
2026-05-04 21:25 46.66864 -51.34461 31784 ft 522 kts 72°
2026-05-04 21:26 46.69365 -51.24589 31783 ft 521 kts 72°
2026-05-04 21:26 46.71849 -51.14735 31784 ft 521 kts 72°
2026-05-04 21:27 46.74319 -51.04900 31790 ft 521 kts 72°
2026-05-04 21:27 46.76795 -50.94991 31793 ft 521 kts 72°
2026-05-04 21:28 46.79257 -50.85095 31794 ft 519 kts 72°
2026-05-04 21:28 46.81700 -50.75233 31794 ft 519 kts 72°
2026-05-04 21:29 46.84145 -50.65322 31802 ft 519 kts 72°
2026-05-04 21:29 46.86560 -50.55488 31796 ft 518 kts 72°
2026-05-04 21:30 46.88975 -50.45610 31804 ft 518 kts 72°
2026-05-04 21:30 46.91376 -50.35746 31804 ft 518 kts 72°
2026-05-04 21:31 46.94971 -50.20900 31808 ft 516 kts 73°
2026-05-04 21:32 46.97353 -50.11008 31804 ft 515 kts 73°
2026-05-04 21:32 46.99711 -50.01173 31806 ft 515 kts 73°
2026-05-04 21:33 47.02142 -49.91365 31814 ft 516 kts 72°
2026-05-04 21:33 47.04633 -49.81517 31835 ft 517 kts 72°
2026-05-04 21:34 47.07111 -49.71653 31837 ft 516 kts 72°
2026-05-04 21:34 47.09577 -49.61758 31842 ft 515 kts 72°
2026-05-04 21:35 47.12001 -49.51971 31841 ft 515 kts 73°
2026-05-04 21:35 47.14425 -49.42096 31839 ft 514 kts 73°
2026-05-04 21:36 47.16849 -49.32213 31839 ft 514 kts 73°
2026-05-04 21:36 47.19261 -49.22345 31840 ft 514 kts 74°
2026-05-04 21:37 47.21658 -49.12548 31847 ft 514 kts 73°
2026-05-04 21:37 47.24062 -49.02685 31852 ft 514 kts 73°
2026-05-04 21:38 47.26454 -48.92798 31850 ft 512 kts 73°
2026-05-04 21:38 47.28814 -48.82983 31861 ft 512 kts 74°
2026-05-04 21:39 47.31186 -48.73057 31869 ft 513 kts 74°
2026-05-04 21:39 47.33546 -48.63150 31870 ft 513 kts 74°
2026-05-04 21:40 47.35888 -48.53267 31872 ft 512 kts 74°
2026-05-04 21:40 47.38215 -48.43411 31872 ft 512 kts 75°
2026-05-04 21:41 47.40536 -48.33531 31881 ft 512 kts 75°
2026-05-04 21:41 47.42854 -48.23616 31891 ft 511 kts 75°
2026-05-04 21:42 47.45158 -48.13719 31891 ft 510 kts 76°
2026-05-04 21:42 47.47445 -48.03843 31895 ft 509 kts 76°
2026-05-04 21:43 47.49717 -47.93994 31889 ft 509 kts 76°
2026-05-04 21:43 47.51984 -47.84125 31916 ft 508 kts 76°
2026-05-04 21:44 47.54247 -47.74218 31913 ft 509 kts 76°
2026-05-04 21:44 47.56498 -47.64317 31927 ft 509 kts 76°
2026-05-04 21:45 47.58738 -47.54429 31915 ft 509 kts 77°
2026-05-04 21:45 47.60976 -47.44495 31927 ft 509 kts 77°
2026-05-04 21:46 47.63192 -47.34618 31917 ft 508 kts 78°
2026-05-04 21:46 47.65395 -47.24765 31935 ft 505 kts 78°
2026-05-04 21:47 47.67596 -47.14849 31962 ft 506 kts 78°
2026-05-04 21:47 47.69777 -47.04999 31935 ft 505 kts 79°
2026-05-04 21:48 47.71952 -46.95103 31947 ft 504 kts 79°
2026-05-04 21:48 47.74107 -46.85269 31915 ft 501 kts 79°
2026-05-04 21:49 47.76231 -46.75499 31909 ft 501 kts 79°
2026-05-04 21:49 47.78362 -46.65650 31914 ft 503 kts 79°
2026-05-04 21:50 47.80499 -46.55779 31915 ft 502 kts 79°
2026-05-04 21:50 47.82619 -46.45945 31914 ft 499 kts 79°
2026-05-04 21:51 47.84720 -46.36120 31919 ft 500 kts 79°
2026-05-04 21:51 47.86803 -46.26337 31920 ft 498 kts 80°
2026-05-04 21:52 47.88882 -46.16530 31921 ft 496 kts 80°
2026-05-04 21:52 47.90931 -46.06817 31932 ft 494 kts 80°
2026-05-04 21:53 47.92980 -45.97036 31937 ft 495 kts 80°
2026-05-04 21:53 47.95016 -45.87295 31939 ft 494 kts 80°
2026-05-04 21:54 47.97037 -45.77570 31938 ft 494 kts 80°
2026-05-04 21:54 47.99051 -45.67835 31943 ft 495 kts 80°
2026-05-04 21:55 48.01063 -45.58070 31943 ft 493 kts 81°
2026-05-04 21:55 48.03067 -45.48269 31945 ft 493 kts 81°
2026-05-04 21:56 48.05055 -45.38525 31950 ft 491 kts 81°
2026-05-04 21:56 48.07032 -45.28778 31951 ft 491 kts 82°
2026-05-04 21:57 48.09002 -45.19005 31945 ft 491 kts 81°
2026-05-04 21:57 48.10954 -45.09288 31953 ft 489 kts 82°
2026-05-04 21:58 48.12899 -44.99550 31953 ft 491 kts 82°
2026-05-04 21:58 48.14830 -44.89841 31958 ft 488 kts 82°
2026-05-04 21:59 48.16762 -44.80065 31957 ft 489 kts 82°
2026-05-04 21:59 48.18662 -44.70404 31954 ft 489 kts 81°
2026-05-04 22:00 48.20575 -44.60651 31955 ft 487 kts 82°
2026-05-04 22:00 48.22474 -44.50904 31957 ft 486 kts 82°
2026-05-04 22:01 48.24350 -44.41207 31957 ft 488 kts 81°
2026-05-04 22:01 48.26235 -44.31446 31962 ft 486 kts 82°
2026-05-04 22:02 48.28104 -44.21705 31966 ft 486 kts 82°
2026-05-04 22:02 48.29955 -44.12011 31970 ft 485 kts 82°
2026-05-04 22:03 48.31796 -44.02307 31972 ft 486 kts 82°
2026-05-04 22:03 48.33635 -43.92572 31970 ft 485 kts 82°
2026-05-04 22:04 48.35462 -43.82857 31968 ft 485 kts 81°
2026-05-04 22:04 48.37281 -43.73141 31972 ft 484 kts 82°
2026-05-04 22:05 48.39084 -43.63444 31977 ft 484 kts 81°
2026-05-04 22:05 48.40878 -43.53743 31976 ft 484 kts 81°
2026-05-04 22:06 48.42676 -43.43979 31978 ft 483 kts 81°
2026-05-04 22:06 48.44448 -43.34296 31977 ft 484 kts 82°
2026-05-04 22:07 48.46229 -43.24523 31977 ft 481 kts 82°
2026-05-04 22:07 48.47977 -43.14876 31974 ft 482 kts 82°
2026-05-04 22:08 48.49727 -43.05163 31975 ft 482 kts 81°
2026-05-04 22:08 48.51470 -42.95442 31974 ft 481 kts 82°
2026-05-04 22:09 48.53202 -42.85720 31980 ft 481 kts 82°
2026-05-04 22:09 48.54922 -42.76020 31982 ft 481 kts 81°
2026-05-04 22:10 48.56642 -42.66259 31993 ft 482 kts 81°
2026-05-04 22:10 48.58342 -42.56570 31991 ft 482 kts 81°
2026-05-04 22:11 48.60040 -42.46828 31993 ft 482 kts 81°
2026-05-04 22:11 48.61742 -42.37015 32001 ft 481 kts 80°
2026-05-04 22:12 48.63423 -42.27280 32004 ft 480 kts 81°
2026-05-04 22:12 48.65093 -42.17537 32010 ft 483 kts 81°
2026-05-04 22:13 48.66757 -42.07783 32013 ft 481 kts 81°
2026-05-04 22:13 48.68414 -41.98026 32015 ft 480 kts 80°
2026-05-04 22:14 48.70065 -41.88235 32022 ft 481 kts 80°
2026-05-04 22:14 48.71697 -41.78491 32030 ft 481 kts 81°
2026-05-04 22:15 48.73338 -41.68651 32040 ft 482 kts 80°
2026-05-04 22:15 48.74952 -41.58901 32044 ft 482 kts 80°
2026-05-04 22:16 48.76575 -41.49062 32050 ft 482 kts 80°
2026-05-04 22:16 48.78193 -41.39198 32055 ft 483 kts 80°
2026-05-04 22:17 48.79785 -41.29417 32058 ft 482 kts 81°
2026-05-04 22:17 48.81387 -41.19545 32063 ft 482 kts 81°
2026-05-04 22:18 48.82964 -41.09742 32071 ft 482 kts 80°
2026-05-04 22:18 48.84544 -40.99861 32077 ft 482 kts 80°
2026-05-04 22:19 48.86109 -40.90020 32084 ft 483 kts 80°
2026-05-04 22:19 48.87671 -40.80155 32088 ft 482 kts 80°
2026-05-04 22:20 48.89227 -40.70258 32093 ft 482 kts 79°
2026-05-04 22:20 48.90761 -40.60446 32104 ft 483 kts 79°
2026-05-04 22:21 48.92304 -40.50506 32117 ft 484 kts 79°
2026-05-04 22:21 48.93839 -40.40561 32120 ft 483 kts 79°
2026-05-04 22:22 48.95352 -40.30703 32127 ft 484 kts 80°
2026-05-04 22:22 48.96869 -40.20739 32124 ft 485 kts 80°
2026-05-04 22:23 48.98382 -40.10739 32125 ft 486 kts 80°
2026-05-04 22:23 49.00004 -40.00727 32128 ft 488 kts 76°
2026-05-04 22:24 49.02232 -39.90978 32137 ft 490 kts 71°
2026-05-04 22:24 49.04660 -39.81382 32143 ft 490 kts 70°
2026-05-04 22:25 49.07097 -39.71715 32152 ft 490 kts 70°
2026-05-04 22:25 49.09507 -39.62065 32159 ft 490 kts 70°
2026-05-04 22:26 49.11918 -39.52364 32162 ft 488 kts 70°
2026-05-04 22:26 49.14297 -39.42729 32167 ft 488 kts 70°
2026-05-04 22:27 49.16681 -39.33039 32171 ft 488 kts 71°
2026-05-04 22:27 49.19044 -39.23387 32177 ft 488 kts 70°
2026-05-04 22:28 49.21409 -39.13689 32183 ft 487 kts 70°
2026-05-04 22:28 49.23759 -39.04007 32191 ft 488 kts 70°
2026-05-04 22:29 49.26103 -38.94305 32200 ft 488 kts 70°
2026-05-04 22:29 49.28438 -38.84593 32203 ft 488 kts 70°
2026-05-04 22:30 49.30762 -38.74890 32209 ft 487 kts 70°
2026-05-04 22:30 49.33081 -38.65163 32209 ft 488 kts 70°
2026-05-04 22:31 49.35386 -38.55453 32215 ft 488 kts 70°
2026-05-04 22:31 49.37694 -38.45682 32221 ft 489 kts 69°
2026-05-04 22:32 49.39983 -38.35954 32223 ft 488 kts 70°
2026-05-04 22:32 49.42273 -38.26176 32228 ft 488 kts 70°
2026-05-04 22:33 49.44559 -38.16378 32232 ft 488 kts 70°
2026-05-04 22:33 49.46832 -38.06582 32232 ft 489 kts 70°
2026-05-04 22:34 49.49101 -37.96757 32238 ft 489 kts 70°
2026-05-04 22:34 49.51355 -37.86951 32243 ft 488 kts 70°
2026-05-04 22:35 49.53601 -37.77139 32248 ft 489 kts 69°
2026-05-04 22:35 49.55843 -37.67299 32256 ft 490 kts 69°
2026-05-04 22:36 49.58070 -37.57483 32259 ft 489 kts 69°
2026-05-04 22:36 49.60296 -37.47615 32262 ft 489 kts 69°
2026-05-04 22:37 49.62520 -37.37723 32265 ft 489 kts 69°
2026-05-04 22:37 49.64732 -37.27834 32268 ft 490 kts 69°
2026-05-04 22:38 49.66939 -37.17911 32272 ft 491 kts 69°
2026-05-04 22:38 49.69133 -37.08009 32277 ft 490 kts 69°
2026-05-04 22:39 49.71333 -36.98032 32284 ft 491 kts 69°
2026-05-04 22:39 49.73506 -36.88119 32289 ft 491 kts 69°
2026-05-04 22:40 49.75688 -36.78130 32289 ft 490 kts 69°
2026-05-04 22:40 49.77839 -36.68225 32293 ft 489 kts 69°
2026-05-04 22:41 49.79987 -36.58289 32295 ft 490 kts 68°
2026-05-04 22:41 49.82137 -36.48302 32297 ft 490 kts 68°
2026-05-04 22:42 49.84269 -36.38353 32302 ft 490 kts 68°
2026-05-04 22:42 49.86396 -36.28369 32302 ft 489 kts 69°
2026-05-04 22:43 49.88520 -36.18353 32304 ft 489 kts 69°
2026-05-04 22:43 49.90626 -36.08375 32303 ft 488 kts 69°
2026-05-04 22:44 49.92713 -35.98420 32307 ft 488 kts 68°
2026-05-04 22:44 49.94795 -35.88466 32308 ft 486 kts 68°
2026-05-04 22:45 49.96864 -35.78514 32314 ft 488 kts 68°
2026-05-04 22:45 49.99967 -35.63500 32324 ft 488 kts 68°
2026-05-04 22:46 50.02027 -35.53460 32327 ft 490 kts 68°
2026-05-04 22:46 50.04089 -35.43373 32326 ft 490 kts 68°
2026-05-04 22:47 50.06127 -35.33350 32324 ft 490 kts 68°
2026-05-04 22:47 50.08161 -35.23277 32326 ft 490 kts 68°
2026-05-04 22:48 50.10202 -35.13150 32326 ft 490 kts 68°
2026-05-04 22:48 50.12213 -35.03090 32326 ft 490 kts 68°
2026-05-04 22:49 50.14230 -34.92959 32327 ft 491 kts 67°
2026-05-04 22:49 50.16237 -34.82818 32332 ft 490 kts 67°
2026-05-04 22:50 50.18227 -34.72731 32342 ft 490 kts 67°
2026-05-04 22:50 50.20216 -34.62583 32346 ft 490 kts 67°
2026-05-04 22:51 50.22198 -34.52409 32347 ft 489 kts 66°
2026-05-04 22:51 50.24166 -34.42266 32345 ft 491 kts 66°
2026-05-04 22:52 50.26116 -34.32145 32346 ft 490 kts 67°
2026-05-04 22:52 50.28067 -34.21981 32346 ft 490 kts 67°
2026-05-04 22:53 50.30013 -34.11800 32345 ft 491 kts 67°
2026-05-04 22:53 50.31949 -34.01594 32347 ft 491 kts 66°
2026-05-04 22:54 50.33869 -33.91425 32345 ft 490 kts 66°
2026-05-04 22:54 50.35794 -33.81172 32348 ft 489 kts 66°
2026-05-04 22:55 50.37690 -33.71038 32348 ft 491 kts 66°
2026-05-04 22:55 50.39587 -33.60802 32356 ft 490 kts 66°
2026-05-04 22:56 50.41484 -33.50543 32358 ft 491 kts 66°
2026-05-04 22:56 50.43359 -33.40324 32363 ft 489 kts 65°
2026-05-04 22:57 50.45234 -33.30068 32362 ft 492 kts 66°
2026-05-04 22:57 50.47093 -33.19849 32366 ft 492 kts 66°
2026-05-04 22:58 50.48944 -33.09574 32366 ft 490 kts 66°
2026-05-04 22:58 50.50788 -32.99295 32365 ft 489 kts 66°
2026-05-04 22:59 50.52628 -32.89011 32365 ft 490 kts 66°
2026-05-04 22:59 50.54455 -32.78726 32368 ft 493 kts 66°
2026-05-04 23:00 50.56290 -32.68329 32363 ft 492 kts 66°
2026-05-04 23:00 50.58105 -32.57966 32370 ft 494 kts 65°
2026-05-04 23:01 50.59911 -32.47628 32372 ft 493 kts 65°
2026-05-04 23:01 50.61706 -32.37273 32376 ft 492 kts 65°
2026-05-04 23:02 50.63491 -32.26932 32375 ft 493 kts 66°
2026-05-04 23:02 50.65260 -32.16584 32377 ft 490 kts 65°
2026-05-04 23:03 50.67026 -32.06249 32381 ft 491 kts 66°
2026-05-04 23:03 50.68778 -31.95898 32385 ft 490 kts 65°
2026-05-04 23:04 50.70532 -31.85502 32394 ft 490 kts 66°
2026-05-04 23:04 50.72269 -31.75131 32400 ft 490 kts 66°
2026-05-04 23:05 50.73990 -31.64775 32403 ft 490 kts 66°
2026-05-04 23:05 50.75705 -31.54403 32399 ft 489 kts 66°
2026-05-04 23:06 50.77405 -31.44042 32403 ft 486 kts 66°
2026-05-04 23:06 50.79093 -31.33735 32401 ft 487 kts 68°
2026-05-04 23:07 50.80780 -31.23355 32405 ft 488 kts 68°
2026-05-04 23:07 50.82442 -31.13041 32407 ft 486 kts 68°
2026-05-04 23:08 50.84093 -31.02745 32415 ft 485 kts 68°
2026-05-04 23:08 50.85733 -30.92456 32423 ft 484 kts 69°
2026-05-04 23:09 50.87359 -30.82192 32421 ft 483 kts 69°
2026-05-04 23:09 50.88975 -30.71911 32422 ft 481 kts 69°
2026-05-04 23:10 50.90584 -30.61630 32403 ft 482 kts 69°
2026-05-04 23:10 50.92188 -30.51316 32426 ft 482 kts 70°
2026-05-04 23:11 50.93764 -30.41104 32423 ft 479 kts 70°
2026-05-04 23:11 50.95335 -30.30847 32402 ft 479 kts 71°
2026-05-04 23:12 50.96895 -30.20610 32415 ft 478 kts 72°
2026-05-04 23:12 50.98439 -30.10399 32419 ft 477 kts 72°
2026-05-04 23:13 51.00113 -30.00258 32417 ft 474 kts 69°
2026-05-04 23:13 51.02377 -29.90460 32422 ft 471 kts 64°
2026-05-04 23:14 51.04813 -29.80819 32426 ft 472 kts 64°
2026-05-04 23:14 51.07250 -29.71147 32422 ft 472 kts 64°
2026-05-04 23:15 51.09667 -29.61466 32412 ft 472 kts 65°
2026-05-04 23:15 51.12074 -29.51781 32413 ft 473 kts 65°
2026-05-04 23:16 51.14480 -29.42034 32430 ft 474 kts 65°
2026-05-04 23:16 51.16870 -29.32319 32431 ft 474 kts 66°
2026-05-04 23:17 51.19268 -29.22521 32423 ft 474 kts 67°
2026-05-04 23:17 51.21653 -29.12735 32433 ft 474 kts 67°
2026-05-04 23:18 51.24014 -29.03003 32422 ft 474 kts 67°
2026-05-04 23:18 51.26385 -28.93191 32428 ft 474 kts 68°
2026-05-04 23:19 51.28738 -28.83403 32423 ft 474 kts 68°
2026-05-04 23:19 51.31094 -28.73549 32433 ft 475 kts 68°
2026-05-04 23:20 51.33433 -28.63735 32433 ft 475 kts 68°
2026-05-04 23:20 51.35762 -28.53913 32425 ft 475 kts 68°
2026-05-04 23:21 51.38091 -28.44056 32429 ft 475 kts 68°
2026-05-04 23:21 51.40431 -28.34107 32433 ft 476 kts 69°
2026-05-04 23:22 51.42744 -28.24218 32427 ft 476 kts 69°
2026-05-04 23:22 51.45046 -28.14339 32424 ft 476 kts 69°
2026-05-04 23:23 51.47372 -28.04309 32431 ft 477 kts 69°
2026-05-04 23:23 51.49662 -27.94383 32414 ft 478 kts 69°
2026-05-04 23:24 51.51963 -27.84354 32415 ft 478 kts 69°
2026-05-04 23:24 51.54234 -27.74417 32416 ft 477 kts 69°
2026-05-04 23:25 51.56505 -27.64436 32409 ft 477 kts 69°
2026-05-04 23:25 51.58773 -27.54420 32406 ft 477 kts 69°
2026-05-04 23:26 51.61028 -27.44416 32408 ft 478 kts 69°
2026-05-04 23:26 51.63264 -27.34446 32411 ft 477 kts 70°
2026-05-04 23:27 51.65512 -27.24389 32412 ft 478 kts 70°
2026-05-04 23:27 51.67739 -27.14362 32411 ft 477 kts 70°
2026-05-04 23:28 51.69955 -27.04338 32409 ft 477 kts 70°
2026-05-04 23:28 51.72165 -26.94295 32413 ft 477 kts 70°
2026-05-04 23:29 51.74365 -26.84244 32414 ft 477 kts 70°
2026-05-04 23:29 51.76566 -26.74139 32411 ft 477 kts 70°
2026-05-04 23:30 51.78738 -26.64115 32412 ft 477 kts 70°
2026-05-04 23:30 51.80922 -26.53990 32414 ft 478 kts 70°
2026-05-04 23:31 51.83086 -26.43910 32411 ft 478 kts 70°
2026-05-04 23:31 51.85247 -26.33801 32414 ft 478 kts 71°
2026-05-04 23:32 51.87403 -26.23656 32416 ft 478 kts 71°
2026-05-04 23:32 51.89547 -26.13524 32418 ft 478 kts 71°
2026-05-04 23:33 51.91680 -26.03387 32417 ft 479 kts 71°
2026-05-04 23:33 51.93813 -25.93199 32409 ft 479 kts 71°
2026-05-04 23:34 51.95933 -25.83022 32406 ft 479 kts 70°
2026-05-04 23:34 51.98046 -25.72829 32404 ft 479 kts 71°
2026-05-04 23:35 52.00149 -25.62630 32401 ft 479 kts 70°
2026-05-04 23:35 52.02249 -25.52394 32392 ft 479 kts 70°
2026-05-04 23:36 52.04327 -25.42217 32390 ft 479 kts 71°
2026-05-04 23:36 52.06409 -25.31962 32383 ft 479 kts 71°
2026-05-04 23:37 52.08477 -25.21722 32389 ft 480 kts 71°
2026-05-04 23:37 52.10542 -25.11448 32383 ft 480 kts 71°
2026-05-04 23:38 52.12600 -25.01148 32388 ft 479 kts 71°
2026-05-04 23:38 52.14635 -24.90910 32384 ft 479 kts 71°
2026-05-04 23:39 52.16678 -24.80585 32384 ft 479 kts 71°
2026-05-04 23:39 52.18697 -24.70319 32383 ft 478 kts 71°
2026-05-04 23:40 52.20707 -24.60057 32385 ft 477 kts 71°
2026-05-04 23:40 52.22700 -24.49813 32384 ft 477 kts 71°
2026-05-04 23:41 52.24697 -24.39494 32383 ft 478 kts 71°
2026-05-04 23:41 52.26688 -24.29145 32382 ft 477 kts 72°
2026-05-04 23:42 52.28661 -24.18841 32382 ft 477 kts 71°
2026-05-04 23:42 52.30628 -24.08516 32385 ft 477 kts 71°
2026-05-04 23:43 52.32583 -23.98203 32384 ft 477 kts 71°
2026-05-04 23:43 52.34525 -23.87901 32381 ft 476 kts 72°
2026-05-04 23:44 52.36456 -23.77601 32379 ft 476 kts 71°
2026-05-04 23:44 52.38385 -23.67246 32378 ft 476 kts 71°
2026-05-04 23:45 52.40302 -23.56901 32376 ft 475 kts 71°
2026-05-04 23:45 52.42190 -23.46647 32371 ft 475 kts 71°
2026-05-04 23:46 52.44085 -23.36301 32364 ft 475 kts 71°
2026-05-04 23:46 52.45976 -23.25920 32360 ft 475 kts 72°
2026-05-04 23:47 52.47841 -23.15626 32360 ft 475 kts 72°
2026-05-04 23:47 52.49710 -23.05256 32358 ft 474 kts 72°
2026-05-04 23:48 52.51560 -22.94930 32356 ft 474 kts 72°
2026-05-04 23:48 52.53406 -22.84561 32352 ft 473 kts 72°
2026-05-04 23:49 52.55232 -22.74247 32353 ft 473 kts 72°
2026-05-04 23:49 52.57064 -22.63844 32356 ft 473 kts 72°
2026-05-04 23:50 52.58866 -22.53546 32356 ft 472 kts 72°
2026-05-04 23:50 52.60667 -22.43203 32354 ft 472 kts 72°
2026-05-04 23:51 52.62463 -22.32824 32352 ft 473 kts 73°
2026-05-04 23:51 52.64248 -22.22446 32354 ft 473 kts 73°
2026-05-04 23:52 52.66021 -22.12074 32353 ft 473 kts 73°
2026-05-04 23:52 52.67794 -22.01641 32353 ft 473 kts 72°
2026-05-04 23:53 52.69544 -21.91282 32350 ft 472 kts 72°
2026-05-04 23:53 52.71302 -21.80817 32348 ft 472 kts 72°
2026-05-04 23:54 52.73028 -21.70474 32346 ft 471 kts 72°
2026-05-04 23:54 52.74745 -21.60130 32345 ft 471 kts 72°
2026-05-04 23:55 52.76468 -21.49679 32347 ft 470 kts 72°
2026-05-04 23:56 52.79017 -21.34096 32347 ft 470 kts 73°
2026-05-04 23:56 52.80700 -21.23728 32347 ft 471 kts 73°
2026-05-04 23:57 52.82380 -21.13323 32347 ft 470 kts 73°
2026-05-04 23:57 52.84052 -21.02913 32346 ft 470 kts 73°
2026-05-04 23:58 52.85722 -20.92449 32343 ft 469 kts 73°
2026-05-04 23:58 52.87363 -20.82089 32340 ft 469 kts 73°
2026-05-04 23:59 52.89001 -20.71673 32331 ft 468 kts 73°
2026-05-04 23:59 52.90621 -20.61316 32321 ft 468 kts 73°
2026-05-05 00:00 52.92242 -20.50890 32316 ft 468 kts 73°
2026-05-05 00:00 52.93854 -20.40459 32318 ft 469 kts 73°
2026-05-05 00:01 52.95456 -20.30022 32312 ft 469 kts 74°
2026-05-05 00:01 52.97042 -20.19605 32309 ft 468 kts 74°
2026-05-05 00:02 52.98620 -20.09159 32307 ft 468 kts 74°
2026-05-05 00:02 52.99802 -19.98618 32307 ft 469 kts 81°
2026-05-05 00:03 53.00273 -19.87816 32313 ft 471 kts 86°
2026-05-05 00:03 53.00474 -19.76951 32319 ft 472 kts 86°
2026-05-05 00:04 53.00663 -19.66113 32321 ft 472 kts 86°
2026-05-05 00:04 53.00850 -19.55241 32320 ft 472 kts 86°
2026-05-05 00:05 53.01031 -19.44377 32315 ft 472 kts 86°
2026-05-05 00:05 53.01203 -19.33539 32313 ft 472 kts 87°
2026-05-05 00:06 53.01366 -19.22688 32310 ft 471 kts 87°
2026-05-05 00:06 53.01519 -19.11849 32308 ft 471 kts 87°
2026-05-05 00:07 53.01663 -19.01013 32305 ft 471 kts 86°
2026-05-05 00:07 53.01799 -18.90142 32298 ft 471 kts 86°
2026-05-05 00:08 53.01921 -18.79345 32286 ft 471 kts 86°
2026-05-05 00:08 53.02033 -18.68517 32279 ft 471 kts 86°
2026-05-05 00:09 53.02135 -18.57691 32275 ft 469 kts 86°
2026-05-05 00:09 53.02227 -18.46883 32275 ft 469 kts 86°
2026-05-05 00:10 53.02309 -18.36119 32271 ft 469 kts 86°
2026-05-05 00:10 53.02383 -18.25268 32270 ft 469 kts 87°
2026-05-05 00:11 53.02448 -18.14480 32266 ft 469 kts 87°
2026-05-05 00:11 53.02503 -18.03635 32264 ft 469 kts 87°
2026-05-05 00:12 53.02546 -17.92851 32262 ft 469 kts 87°
2026-05-05 00:12 53.02580 -17.82054 32261 ft 469 kts 87°
2026-05-05 00:13 53.02602 -17.71269 32257 ft 468 kts 86°
2026-05-05 00:13 53.02616 -17.60516 32255 ft 467 kts 86°
2026-05-05 00:14 53.02623 -17.49758 32255 ft 468 kts 86°
2026-05-05 00:14 53.02619 -17.39002 32251 ft 468 kts 86°
2026-05-05 00:15 53.02604 -17.28239 32249 ft 468 kts 87°
2026-05-05 00:15 53.02580 -17.17464 32249 ft 468 kts 87°
2026-05-05 00:16 53.02546 -17.06698 32246 ft 468 kts 87°
2026-05-05 00:16 53.02503 -16.95912 32242 ft 468 kts 87°
2026-05-05 00:17 53.02451 -16.85148 32241 ft 467 kts 87°
2026-05-05 00:17 53.02389 -16.74413 32238 ft 467 kts 88°
2026-05-05 00:18 53.02316 -16.63665 32237 ft 468 kts 88°
2026-05-05 00:18 53.02233 -16.52853 32234 ft 469 kts 88°
2026-05-05 00:19 53.02142 -16.42041 32231 ft 470 kts 88°
2026-05-05 00:19 53.02040 -16.31235 32227 ft 470 kts 89°
2026-05-05 00:20 53.01926 -16.20356 32226 ft 471 kts 89°
2026-05-05 00:20 53.01803 -16.09554 32226 ft 471 kts 89°
2026-05-05 00:21 53.01670 -15.98679 32221 ft 470 kts 90°
2026-05-05 00:21 53.01527 -15.87882 32218 ft 470 kts 89°
2026-05-05 00:22 53.01375 -15.77103 32215 ft 469 kts 89°
2026-05-05 00:22 53.01214 -15.66288 32211 ft 469 kts 89°
2026-05-05 00:23 53.01041 -15.55462 32209 ft 470 kts 89°
2026-05-05 00:23 53.00860 -15.44645 32208 ft 470 kts 89°
2026-05-05 00:24 53.00669 -15.33867 32207 ft 469 kts 90°
2026-05-05 00:24 53.00468 -15.23028 32204 ft 469 kts 90°
2026-05-05 00:25 53.00257 -15.12249 32203 ft 469 kts 90°
2026-05-05 00:25 53.00037 -15.01485 32196 ft 469 kts 89°
2026-05-05 00:26 53.00029 -14.90693 32198 ft 468 kts 87°
2026-05-05 00:26 53.00069 -14.79922 32197 ft 468 kts 87°
2026-05-05 00:27 53.00097 -14.69195 32196 ft 468 kts 87°
2026-05-05 00:27 53.00110 -14.58411 32194 ft 468 kts 87°
2026-05-05 00:28 53.00113 -14.47676 32192 ft 467 kts 87°
2026-05-05 00:28 53.00105 -14.36916 32190 ft 467 kts 87°
2026-05-05 00:29 53.00087 -14.26129 32186 ft 467 kts 88°
2026-05-05 00:29 53.00050 -14.15407 32188 ft 467 kts 89°
2026-05-05 00:30 52.99426 -14.04715 32181 ft 470 kts 98°
2026-05-05 00:30 52.97839 -13.94186 32294 ft 475 kts 107°
2026-05-05 00:30 52.96690 -13.89078 32562 ft 475 kts 111°
2026-05-05 00:31 52.95317 -13.84098 32846 ft 473 kts 114°
2026-05-05 00:31 52.93870 -13.79222 33091 ft 473 kts 115°
2026-05-05 00:31 52.92410 -13.74346 33169 ft 473 kts 115°
2026-05-05 00:32 52.89489 -13.64616 33176 ft 472 kts 115°
2026-05-05 00:32 52.86587 -13.54938 33173 ft 471 kts 115°
2026-05-05 00:33 52.83678 -13.45258 33173 ft 471 kts 115°
2026-05-05 00:33 52.80776 -13.35631 33170 ft 472 kts 115°
2026-05-05 00:34 52.77854 -13.25977 33169 ft 472 kts 116°
2026-05-05 00:34 52.74926 -13.16345 33166 ft 472 kts 116°
2026-05-05 00:35 52.71987 -13.06713 33164 ft 472 kts 116°
2026-05-05 00:35 52.69031 -12.97065 33165 ft 471 kts 116°
2026-05-05 00:36 52.66081 -12.87472 33160 ft 471 kts 116°
2026-05-05 00:36 52.63131 -12.77917 33162 ft 470 kts 116°
2026-05-05 00:37 52.60177 -12.68386 33160 ft 470 kts 116°
2026-05-05 00:37 52.57228 -12.58911 33158 ft 470 kts 116°
2026-05-05 00:38 52.54240 -12.49348 33157 ft 470 kts 116°
2026-05-05 00:38 52.51272 -12.39885 33157 ft 469 kts 116°
2026-05-05 00:39 52.48278 -12.30376 33155 ft 468 kts 117°
2026-05-05 00:39 52.45291 -12.20929 33154 ft 468 kts 117°
2026-05-05 00:40 52.42302 -12.11516 33156 ft 468 kts 117°
2026-05-05 00:40 52.39308 -12.02117 33156 ft 467 kts 117°
2026-05-05 00:41 52.36307 -11.92729 33154 ft 467 kts 117°
2026-05-05 00:41 52.33314 -11.83406 33153 ft 467 kts 117°
2026-05-05 00:42 52.30305 -11.74069 33153 ft 467 kts 117°
2026-05-05 00:42 52.27268 -11.64682 33153 ft 466 kts 117°
2026-05-05 00:43 52.24247 -11.55379 33152 ft 466 kts 117°
2026-05-05 00:43 52.21231 -11.46128 33150 ft 466 kts 117°
2026-05-05 00:44 52.18189 -11.36825 33149 ft 465 kts 117°
2026-05-05 00:44 52.15165 -11.27617 33150 ft 464 kts 117°
2026-05-05 00:45 52.12118 -11.18375 33148 ft 464 kts 117°
2026-05-05 00:45 52.09082 -11.09197 33144 ft 464 kts 117°
2026-05-05 00:46 52.06014 -10.99963 33141 ft 463 kts 117°
2026-05-05 00:46 52.02970 -10.90835 33141 ft 463 kts 117°
2026-05-05 00:47 51.99894 -10.81642 33141 ft 462 kts 117°
2026-05-05 00:47 51.96852 -10.72582 33140 ft 462 kts 117°
2026-05-05 00:48 51.93852 -10.63680 33139 ft 462 kts 117°
2026-05-05 00:48 51.90774 -10.54582 33139 ft 462 kts 117°
2026-05-05 00:49 51.87688 -10.45486 33138 ft 461 kts 116°
2026-05-05 00:49 51.84602 -10.36434 33137 ft 461 kts 116°
2026-05-05 00:50 51.81515 -10.27401 33137 ft 460 kts 117°
2026-05-05 00:50 51.78422 -10.18385 33137 ft 460 kts 117°
2026-05-05 00:51 51.75338 -10.09433 33135 ft 460 kts 117°
2026-05-05 00:51 51.72219 -10.00414 33132 ft 459 kts 116°
2026-05-05 00:52 51.69133 -9.91512 33130 ft 458 kts 116°
2026-05-05 00:52 51.66035 -9.82605 33123 ft 457 kts 116°
2026-05-05 00:53 51.62917 -9.73678 33115 ft 457 kts 116°
2026-05-05 00:53 51.59820 -9.64849 33116 ft 456 kts 116°
2026-05-05 00:54 51.56696 -9.55973 33118 ft 456 kts 116°
2026-05-05 00:54 51.53578 -9.47145 33121 ft 456 kts 116°
2026-05-05 00:55 51.50456 -9.38337 33119 ft 454 kts 116°
2026-05-05 00:55 51.47326 -9.29542 33115 ft 454 kts 116°
2026-05-05 00:56 51.44197 -9.20770 33117 ft 453 kts 116°
2026-05-05 00:56 51.41083 -9.12065 33117 ft 452 kts 116°
2026-05-05 00:57 51.37957 -9.03350 33112 ft 452 kts 116°
2026-05-05 00:57 51.34830 -8.94675 33107 ft 451 kts 116°
2026-05-05 00:58 51.31715 -8.86060 33097 ft 451 kts 115°
2026-05-05 00:58 51.28583 -8.77427 33098 ft 450 kts 115°
2026-05-05 00:59 51.25443 -8.68807 33098 ft 449 kts 115°
2026-05-05 00:59 51.22316 -8.60253 33091 ft 447 kts 115°
2026-05-05 01:00 51.19198 -8.51743 33094 ft 447 kts 115°
2026-05-05 01:00 51.16072 -8.43244 33086 ft 446 kts 115°
2026-05-05 01:01 51.12931 -8.34735 33080 ft 445 kts 115°
2026-05-05 01:01 51.09810 -8.26295 33080 ft 445 kts 115°
2026-05-05 01:02 51.06678 -8.17869 33079 ft 442 kts 115°
2026-05-05 01:02 51.03556 -8.09489 33076 ft 441 kts 115°
2026-05-05 01:03 51.00442 -8.01106 33072 ft 441 kts 114°
2026-05-05 01:03 50.97679 -7.92536 33080 ft 438 kts 110°
2026-05-05 01:04 50.94981 -7.83897 33073 ft 437 kts 111°
2026-05-05 01:04 50.90953 -7.71053 33070 ft 437 kts 111°
2026-05-05 01:05 50.88245 -7.62461 33067 ft 436 kts 111°
2026-05-05 01:05 50.85544 -7.53922 33062 ft 436 kts 111°
2026-05-05 01:06 50.82838 -7.45399 33060 ft 436 kts 111°
2026-05-05 01:06 50.80121 -7.36864 33060 ft 435 kts 111°
2026-05-05 01:07 50.77405 -7.28366 33057 ft 436 kts 112°
2026-05-05 01:07 50.74661 -7.19813 33059 ft 435 kts 112°
2026-05-05 01:08 50.71937 -7.11350 33058 ft 435 kts 112°
2026-05-05 01:08 50.69215 -7.02915 33051 ft 435 kts 112°
2026-05-05 01:09 50.66472 -6.94444 33051 ft 435 kts 112°
2026-05-05 01:09 50.63719 -6.85975 33057 ft 436 kts 112°
2026-05-05 01:10 50.60959 -6.77514 33053 ft 436 kts 113°
2026-05-05 01:10 50.58187 -6.69046 33050 ft 436 kts 113°
2026-05-05 01:11 50.55415 -6.60609 33047 ft 435 kts 113°
2026-05-05 01:11 50.52639 -6.52190 33050 ft 436 kts 114°
2026-05-05 01:12 50.49850 -6.43793 33046 ft 437 kts 114°
2026-05-05 01:12 50.47036 -6.35334 33041 ft 437 kts 114°
2026-05-05 01:13 50.44247 -6.26924 33035 ft 438 kts 115°
2026-05-05 01:13 50.41436 -6.18484 33037 ft 438 kts 115°
2026-05-05 01:14 50.38623 -6.10073 33034 ft 438 kts 115°
2026-05-05 01:14 50.35801 -6.01673 33032 ft 438 kts 115°
2026-05-05 01:15 50.32961 -5.93253 33029 ft 438 kts 115°
2026-05-05 01:15 50.30104 -5.84813 33022 ft 439 kts 115°
2026-05-05 01:16 50.27259 -5.76435 33024 ft 439 kts 115°
2026-05-05 01:16 50.24397 -5.68039 33018 ft 438 kts 115°
2026-05-05 01:17 50.21540 -5.59684 33020 ft 438 kts 116°
2026-05-05 01:17 50.18693 -5.51385 33015 ft 437 kts 116°
2026-05-05 01:18 50.15824 -5.43045 33013 ft 438 kts 116°
2026-05-05 01:18 50.12938 -5.34686 33015 ft 438 kts 117°
2026-05-05 01:19 50.10067 -5.26403 33017 ft 438 kts 117°
2026-05-05 01:19 50.07175 -5.18078 33017 ft 438 kts 117°
2026-05-05 01:20 50.04280 -5.09777 33010 ft 437 kts 117°
2026-05-05 01:20 50.01378 -5.01480 33003 ft 438 kts 117°
2026-05-05 01:21 49.98473 -4.93201 33006 ft 438 kts 117°
2026-05-05 01:21 49.95560 -4.84927 32998 ft 437 kts 117°
2026-05-05 01:22 49.92647 -4.76681 33001 ft 437 kts 117°
2026-05-05 01:22 49.89733 -4.68460 33000 ft 437 kts 117°
2026-05-05 01:23 49.86803 -4.60217 32987 ft 436 kts 117°
2026-05-05 01:23 49.83883 -4.52026 33009 ft 436 kts 117°
2026-05-05 01:24 49.80963 -4.43866 32996 ft 436 kts 118°
2026-05-05 01:24 49.78043 -4.35731 32995 ft 436 kts 118°
2026-05-05 01:25 49.75099 -4.27558 32998 ft 436 kts 118°
2026-05-05 01:25 49.72142 -4.19376 32990 ft 436 kts 119°
2026-05-05 01:26 49.69222 -4.11206 33002 ft 435 kts 117°
2026-05-05 01:26 49.66817 -4.02673 32995 ft 435 kts 110°
2026-05-05 01:27 49.65131 -3.93764 32995 ft 435 kts 103°
2026-05-05 01:27 49.64186 -3.84605 33003 ft 436 kts 96°
2026-05-05 01:28 49.63605 -3.75272 33004 ft 437 kts 96°
2026-05-05 01:28 49.63034 -3.66039 33010 ft 436 kts 96°
2026-05-05 01:29 49.62446 -3.56708 33002 ft 436 kts 96°
2026-05-05 01:29 49.61858 -3.47500 33009 ft 436 kts 96°
2026-05-05 01:30 49.61255 -3.38204 33020 ft 435 kts 96°
2026-05-05 01:30 49.60650 -3.28983 32993 ft 436 kts 97°
2026-05-05 01:31 49.60035 -3.19731 33005 ft 436 kts 97°
2026-05-05 01:31 49.59410 -3.10424 33010 ft 436 kts 97°
2026-05-05 01:32 49.58781 -3.01181 32994 ft 436 kts 98°
2026-05-05 01:32 49.58142 -2.91900 32980 ft 435 kts 98°
2026-05-05 01:33 49.57498 -2.82648 32979 ft 436 kts 98°
2026-05-05 01:33 49.56844 -2.73387 32978 ft 436 kts 98°
2026-05-05 01:34 49.56183 -2.64125 32976 ft 437 kts 98°
2026-05-05 01:34 49.55515 -2.54867 32971 ft 437 kts 98°
2026-05-05 01:35 49.54836 -2.45566 32979 ft 437 kts 98°
2026-05-05 01:35 49.54156 -2.36337 32965 ft 437 kts 98°
2026-05-05 01:36 49.53463 -2.27062 32970 ft 438 kts 99°
2026-05-05 01:36 49.52761 -2.17767 32980 ft 438 kts 99°
2026-05-05 01:37 49.52055 -2.08500 32981 ft 439 kts 99°
2026-05-05 01:37 49.51339 -1.99225 32970 ft 439 kts 100°
2026-05-05 01:38 49.50610 -1.89888 32973 ft 439 kts 100°
2026-05-05 01:38 49.49880 -1.80622 32969 ft 439 kts 100°
2026-05-05 01:39 49.49139 -1.71333 32965 ft 439 kts 100°
2026-05-05 01:39 49.48392 -1.62038 32968 ft 439 kts 100°
2026-05-05 01:40 49.47640 -1.52756 32967 ft 440 kts 100°
2026-05-05 01:40 49.46876 -1.43443 32966 ft 441 kts 101°
2026-05-05 01:41 49.46108 -1.34182 32968 ft 441 kts 102°
2026-05-05 01:41 49.45322 -1.24796 32964 ft 441 kts 102°
2026-05-05 01:42 49.44533 -1.15491 32957 ft 441 kts 102°
2026-05-05 01:42 49.43740 -1.06221 32953 ft 441 kts 102°
2026-05-05 01:43 49.42932 -0.96897 32952 ft 441 kts 102°
2026-05-05 01:43 49.42117 -0.87566 32949 ft 442 kts 102°
2026-05-05 01:44 49.41294 -0.78237 32953 ft 443 kts 102°
2026-05-05 01:44 49.40467 -0.68919 32954 ft 443 kts 102°
2026-05-05 01:45 49.39622 -0.59542 32949 ft 443 kts 102°
2026-05-05 01:45 49.38778 -0.50234 32954 ft 444 kts 102°
2026-05-05 01:46 49.37927 -0.40913 32942 ft 443 kts 102°
2026-05-05 01:46 49.37063 -0.31573 32941 ft 444 kts 103°
2026-05-05 01:47 49.36276 -0.22176 32948 ft 447 kts 101°
2026-05-05 01:47 49.35685 -0.12752 32939 ft 447 kts 100°
2026-05-05 01:48 49.35090 -0.03257 32942 ft 447 kts 100°
2026-05-05 01:48 49.34486 0.06158 32942 ft 447 kts 100°
2026-05-05 01:49 49.34177 0.10937 32586 ft 448 kts 100°
2026-05-05 01:49 49.33873 0.15615 32050 ft 445 kts 100°
2026-05-05 01:49 49.33565 0.20334 31466 ft 442 kts 100°
2026-05-05 01:49 49.33261 0.24935 30810 ft 442 kts 100°
2026-05-05 01:50 49.32946 0.29634 30052 ft 443 kts 100°
2026-05-05 01:50 49.32630 0.34279 29348 ft 442 kts 100°
2026-05-05 01:50 49.32310 0.38980 28628 ft 442 kts 99°
2026-05-05 01:50 49.31996 0.43610 27872 ft 443 kts 99°
2026-05-05 01:51 49.31699 0.48283 27119 ft 443 kts 97°
2026-05-05 01:51 49.31554 0.52945 26719 ft 439 kts 94°
2026-05-05 01:51 49.31495 0.57635 26223 ft 439 kts 93°
2026-05-05 01:51 49.31446 0.62272 25728 ft 438 kts 93°
2026-05-05 01:52 49.31397 0.66891 25239 ft 435 kts 93°
2026-05-05 01:52 49.31345 0.71484 24739 ft 430 kts 93°
2026-05-05 01:52 49.31293 0.76006 24241 ft 424 kts 93°
2026-05-05 01:52 49.31237 0.80492 23740 ft 419 kts 93°
2026-05-05 01:53 49.31181 0.84896 23264 ft 414 kts 92°
2026-05-05 01:53 49.31125 0.89283 22948 ft 409 kts 92°
2026-05-05 01:53 49.31066 0.93609 22917 ft 410 kts 93°
2026-05-05 01:53 49.31005 0.97979 22916 ft 412 kts 93°
2026-05-05 01:54 49.30942 1.02361 22919 ft 412 kts 93°
2026-05-05 01:54 49.30876 1.06764 22920 ft 412 kts 92°
2026-05-05 01:54 49.30810 1.11103 22919 ft 412 kts 92°
2026-05-05 01:54 49.30742 1.15498 22921 ft 413 kts 93°
2026-05-05 01:55 49.30672 1.19871 22921 ft 413 kts 93°
2026-05-05 01:55 49.30600 1.24259 22927 ft 413 kts 93°
2026-05-05 01:55 49.30527 1.28629 22927 ft 413 kts 93°
2026-05-05 01:55 49.30452 1.33034 22814 ft 405 kts 93°
2026-05-05 01:56 49.30378 1.37265 21993 ft 399 kts 92°
2026-05-05 01:56 49.30300 1.41439 20817 ft 398 kts 92°
2026-05-05 01:56 49.30223 1.45601 19784 ft 392 kts 92°
2026-05-05 01:56 49.30144 1.49759 18846 ft 386 kts 92°
2026-05-05 01:57 49.30068 1.53778 18018 ft 380 kts 92°
2026-05-05 01:57 49.29972 1.57781 17325 ft 370 kts 94°
2026-05-05 01:57 49.29814 1.61612 16762 ft 358 kts 94°
2026-05-05 01:57 49.29649 1.65333 16226 ft 346 kts 95°
2026-05-05 01:58 49.29486 1.68954 15689 ft 336 kts 95°
2026-05-05 01:58 49.29327 1.72430 15197 ft 326 kts 96°
2026-05-05 01:58 49.28792 1.75703 14891 ft 309 kts 118°
2026-05-05 01:58 49.27537 1.78273 14699 ft 298 kts 135°
2026-05-05 01:59 49.26070 1.80436 14172 ft 298 kts 136°
2026-05-05 01:59 49.24551 1.82619 13681 ft 298 kts 136°
2026-05-05 01:59 49.23049 1.84785 13227 ft 296 kts 136°
2026-05-05 01:59 49.21578 1.86919 12777 ft 294 kts 136°
2026-05-05 02:00 49.20109 1.89058 12308 ft 292 kts 135°
2026-05-05 02:00 49.18641 1.91201 11866 ft 289 kts 136°
2026-05-05 02:00 49.17194 1.93313 11405 ft 288 kts 135°
2026-05-05 02:00 49.15752 1.95416 10912 ft 286 kts 135°
2026-05-05 02:01 49.14325 1.97498 10447 ft 285 kts 135°
2026-05-05 02:01 49.12915 1.99554 9993 ft 283 kts 134°
2026-05-05 02:01 49.11485 2.01640 9568 ft 280 kts 135°
2026-05-05 02:01 49.10097 2.03661 9203 ft 276 kts 134°
2026-05-05 02:02 49.08720 2.05667 8867 ft 270 kts 134°
2026-05-05 02:02 49.07410 2.07572 8745 ft 255 kts 134°
2026-05-05 02:02 49.06129 2.09432 8224 ft 253 kts 134°
2026-05-05 02:02 49.04877 2.11252 7685 ft 249 kts 134°
2026-05-05 02:03 49.03630 2.13061 7194 ft 244 kts 134°
2026-05-05 02:03 49.02426 2.14807 6729 ft 240 kts 134°
2026-05-05 02:03 49.01256 2.16574 6252 ft 235 kts 125°
2026-05-05 02:03 49.00634 2.18796 5672 ft 231 kts 94°
2026-05-05 02:04 49.00660 2.21218 5023 ft 233 kts 82°
2026-05-05 02:04 49.00883 2.23600 4657 ft 224 kts 81°
2026-05-05 02:04 49.01077 2.25948 4191 ft 221 kts 83°
2026-05-05 02:04 49.01225 2.28244 3699 ft 220 kts 84°
2026-05-05 02:05 49.01348 2.30572 3197 ft 218 kts 85°
2026-05-05 02:05 49.01457 2.32819 2884 ft 210 kts 84°
2026-05-05 02:05 49.01563 2.34986 2669 ft 199 kts 84°
2026-05-05 02:05 49.01662 2.36982 2405 ft 181 kts 83°
2026-05-05 02:06 49.01755 2.38804 2166 ft 169 kts 83°
2026-05-05 02:06 49.01843 2.40522 1925 ft 156 kts 82°
2026-05-05 02:06 49.01925 2.42120 1710 ft 146 kts 82°
2026-05-05 02:06 49.02004 2.43619 1508 ft 142 kts 83°
2026-05-05 02:07 49.02082 2.45109 1333 ft 141 kts 83°
2026-05-05 02:07 49.02159 2.46593 1152 ft 141 kts 83°
2026-05-05 02:07 49.02235 2.48076 981 ft 140 kts 83°
2026-05-05 02:07 49.02316 2.49557 784 ft 140 kts 82°
2026-05-05 02:08 49.02396 2.51029 603 ft 140 kts 83°
2026-05-05 02:08 49.02472 2.52505 420 ft 140 kts 83°
2026-05-05 02:08 49.02545 2.53861 379 ft 97 kts 84°
2026-05-05 02:08 49.02584 2.54561 380 ft 51 kts 86°
2026-05-05 02:09 49.02608 2.55101 378 ft 48 kts 96°
2026-05-05 02:09 49.02492 2.55534 380 ft 31 kts 113°
2026-05-05 02:09 49.02361 2.55619 380 ft 20 kts 175°
2026-05-05 02:09 49.02215 2.55637 377 ft 21 kts 175°
2026-05-05 02:10 49.02071 2.55653 374 ft 19 kts 173°
2026-05-05 02:10 49.01946 2.55669 371 ft 15 kts 174°
2026-05-05 02:10 49.01889 2.55599 369 ft 12 kts 260°
2026-05-05 02:10 49.01879 2.55473 371 ft 12 kts 264°
2026-05-05 02:11 49.01872 2.55337 370 ft 13 kts 264°
2026-05-05 02:11 49.01860 2.55196 370 ft 12 kts 243°
2026-05-05 02:11 49.01780 2.55142 369 ft 14 kts 183°
2026-05-05 02:11 49.01670 2.55150 366 ft 16 kts 175°
2026-05-05 02:12 49.01548 2.55165 364 ft 18 kts 175°
2026-05-05 02:12 49.01293 2.55215 356 ft 15 kts 199°
2026-05-05 02:12 49.01188 2.55160 354 ft 16 kts 180°
2026-05-05 02:13 49.01070 2.55206 349 ft 19 kts 163°
2026-05-05 02:13 49.00934 2.55265 344 ft 21 kts 164°
2026-05-05 02:13 49.00784 2.55327 339 ft 23 kts 163°
2026-05-05 02:13 49.00646 2.55384 336 ft 19 kts 162°
2026-05-05 02:14 49.00554 2.55445 335 ft 10 kts 119°
2026-05-05 02:14 49.00553 2.55555 336 ft 10 kts 86°
2026-05-05 02:14 49.00557 2.55652 338 ft 8 kts 85°
2026-05-05 02:14 49.00561 2.55733 339 ft 6 kts 85°
2026-05-05 02:15 49.00565 2.55798 341 ft 5 kts 85°
2026-05-05 02:15 49.00567 2.55846 342 ft 3 kts 85°
2026-05-05 02:15 49.00568 2.55862 343 ft 0 kts 85°
2026-05-05 02:15 49.00569 2.55880 343 ft 3 kts 85°
2026-05-05 02:16 49.00570 2.55904 344 ft 2 kts 85°
2026-05-05 02:16 49.00567 2.55941 345 ft 3 kts 137°
2026-05-05 02:16 49.00526 2.55949 345 ft 7 kts 173°
2026-05-05 02:16 49.00480 2.55958 345 ft 0 kts 172°
2026-05-05 02:17 49.00477 2.55958 344 ft 0 kts 172°